Regional Weather Roundup
Issued by NWS

Home | Current Version | Previous Version | Text Only | Print | Product List | Glossary On
Versions: 1 2 3 4 5 6 7 8 9 10 11 12 13 14 15 16 17 18 19 20 21 22 23 24 25 26 27 28 29 30 31 32 33 34 35 36 37 38 39 40 41 42 43 44 45 46 47 48 49 50
000
ASMX46 KSGX 200710
RWRMX

MEXICAN WEATHER ROUNDUP
NATIONAL WEATHER SERVICE SAN DIEGO CA
1100 PM PST FRI DEC 19 2014

BAJA CALIFORNIA

CITY           SKY/WX    TMP DP  RH WIND       PRES   REMARKS
ENSENADA NW      N/A     58  32  38 N6        30.16R
LA PAZ         CLEAR     55  50  82 CALM      30.05
TIJUANA        PTCLDY    54  48  82 CALM      30.19S

NORTHWESTERN MEXICO

CITY           SKY/WX    TMP DP  RH WIND       PRES   REMARKS

NORTHEASTERN MEXICO

CITY           SKY/WX    TMP DP  RH WIND       PRES   REMARKS
MONTERREY      CLOUDY    59  57  94 SE7       30.12
REYNOSA        CLOUDY    59  52  77 N9        30.12
SALTILLO       FOG       48  46  93 CALM      30.20S VSB 1
VICTORIA       CLOUDY    63  61  94 N8        30.12

WESTERN MEXICO

CITY           SKY/WX    TMP DP  RH WIND       PRES   REMARKS
DURANGO        CLEAR     45  23  42 S6        30.19S
GUADALAJARA    CLEAR     50  41  71 CALM      30.16
MAZATLAN       MOCLDY    55  52  88 NE7       29.93S
PTO. VALLARTA  CLOUDY    70  66  88 CALM      29.93F
ZACATECAS      CLEAR     52  23  32 S7        30.21F

CENTRAL MEXICO

CITY           SKY/WX    TMP DP  RH WIND       PRES   REMARKS
LEON           CLEAR     50  39  66 N6        30.27S
MEXICO CITY    CLEAR     57  45  62 CALM      30.29F
MORELIA        CLEAR     50  43  76 CALM      30.22
S. LUIS POTOSI CLEAR     54  50  87 CALM      30.20S
TAMPICO        MOCLDY    70  63  78 N23       30.06S
TOLUCA         PTCLDY    41  37  87 CALM      30.37F
VERACRUZ       CLOUDY    73  70  88 N3        30.00S

SOUTHERN MEXICO

CITY           SKY/WX    TMP DP  RH WIND       PRES   REMARKS
ACAPULCO       CLEAR     73  72  94 NW2       29.90S
TAPACHULA      PTCLDY    77  73  88 CALM      29.91F

YUCATAN PENINSULA

CITY           SKY/WX    TMP DP  RH WIND       PRES   REMARKS
CAMPECHE       PTCLDY    73  70  88 N5        29.93S
CANCUN         CLOUDY    75  73  94 CALM      29.94F
C. DEL CARMEN  CLEAR     75  72  88 NE8       29.94
COZUMEL        MOCLDY    72  72 100 SE5       29.92F
MERIDA         MOCLDY    73  70  88 E6        29.95F

$$




USA.gov is the U.S. government's official web portal to all federal, state and local government web resources and services.